| time (UTC) | temp F | wind direction | speed knots | gust knots | rain 1hr in | rain 24hr in | rain mn in | humidity % | barometer mb |
| 20260904093052 | 50 | 294 | 0.0 | 0.0 | 0.00 | 0.00 | 0.00 | 35 | 1011.3 |
| 20260904091543 | 50 | 294 | 0.0 | 0.0 | 0.00 | 0.00 | 0.00 | 38 | 1011.2 |
| 20260904090048 | 50 | 294 | 0.0 | 0.0 | 0.00 | 0.00 | 0.00 | 40 | 1011.4 |
| 20260904084538 | 50 | 294 | 0.0 | 0.0 | 0.00 | 0.00 | 0.00 | 44 | 1011.5 |
| 20260904083037 | 50 | 294 | 0.0 | 0.0 | 0.00 | 0.00 | 0.00 | 48 | 1011.8 |
| 20260904081533 | 50 | 294 | 0.0 | 0.0 | 0.00 | 0.00 | 0.00 | 49 | 1011.8 |
| 20260904080046 | 50 | 294 | 0.0 | 0.0 | 0.00 | 0.00 | 0.00 | 51 | 1011.9 |
| 20260904074533 | 50 | 294 | 0.0 | 0.0 | 0.00 | 0.00 | 0.00 | 48 | 1011.8 |
| 20260904073035 | 51 | 294 | 0.0 | 0.0 | 0.00 | 0.00 | 0.00 | 52 | 1011.9 |
| 20260904071526 | 51 | 294 | 0.0 | 0.0 | 0.00 | 0.00 | 0.00 | 51 | 1011.8 |
| 20260904070024 | 51 | 294 | 0.0 | 0.0 | 0.00 | 0.00 | 0.00 | 52 | 1011.7 |
| 20260904064524 | 51 | 294 | 0.0 | 0.0 | 0.00 | 0.00 | 0.00 | 55 | 1011.6 |
| 20260904063024 | 52 | 294 | 0.0 | 0.0 | 0.00 | 0.00 | 0.00 | 59 | 1011.6 |
| 20260904061525 | 52 | 294 | 0.0 | 0.0 | 0.00 | 0.00 | 0.00 | 64 | 1011.6 |
| 20260904060023 | 53 | 294 | 0.0 | 0.0 | 0.00 | 0.00 | 0.00 | 62 | 1011.5 |
| 20260904054522 | 53 | 294 | 0.0 | 0.0 | 0.00 | 0.00 | 0.00 | 66 | 1011.7 |
| 20260904053023 | 54 | 294 | 0.0 | 0.0 | 0.00 | 0.00 | 0.00 | 69 | 1011.5 |
| 20260904051529 | 55 | 294 | 0.0 | 0.0 | 0.00 | 0.00 | 0.00 | 74 | 1011.5 |
| 20260904050021 | 56 | 294 | 0.0 | 0.0 | 0.00 | 0.00 | 0.00 | 75 | 1011.5 |
| 20260904044534 | 56 | 294 | 0.0 | 0.0 | 0.00 | 0.00 | 0.00 | 75 | 1011.5 |
| 20260904043020 | 57 | 294 | 0.0 | 0.0 | 0.00 | 0.00 | 0.00 | 74 | 1011.4 |
| 20260904041532 | 57 | 294 | 0.0 | 0.0 | 0.00 | 0.00 | 0.00 | 73 | 1011.5 |
| 20260904040018 | 58 | 294 | 0.0 | 0.0 | 0.00 | 0.00 | 0.00 | 72 | 1011.6 |
| 20260904034517 | 58 | 294 | 0.0 | 0.0 | 0.00 | 0.00 | 0.00 | 70 | 1011.5 |
| 20260904033017 | 60 | 294 | 0.0 | 0.0 | 0.00 | 0.00 | 0.00 | 68 | 1011.6 |
| 20260904031515 | 61 | 299 | 0.0 | 0.0 | 0.00 | 0.00 | 0.00 | 65 | 1011.5 |
| 20260904030014 | 62 | 299 | 0.0 | 0.0 | 0.00 | 0.00 | 0.00 | 63 | 1011.3 |
| 20260904024514 | 63 | 299 | 0.0 | 0.0 | 0.00 | 0.00 | 0.00 | 62 | 1011.1 |
| 20260904023013 | 64 | 299 | 0.0 | 0.0 | 0.00 | 0.00 | 0.00 | 62 | 1011.0 |
| 20260904021516 | 65 | 299 | 0.0 | 0.0 | 0.00 | 0.00 | 0.00 | 62 | 1011.0 |
| 20260904020012 | 66 | 299 | 0.0 | 0.0 | 0.00 | 0.00 | 0.00 | 61 | 1010.9 |
| 20260904014511 | 67 | 306 | 0.0 | 0.0 | 0.00 | 0.00 | 0.00 | 60 | 1011.0 |
| 20260904013010 | 68 | 298 | 0.0 | 0.0 | 0.00 | 0.00 | 0.00 | 58 | 1011.1 |
| 20260904011508 | 69 | 308 | 0.0 | 7.8 | 0.00 | 0.00 | 0.00 | 56 | 1011.1 |
| 20260904010007 | 70 | 317 | 0.0 | 9.6 | 0.00 | 0.00 | 0.00 | 54 | 1011.1 |
| 20260904004508 | 71 | 311 | 0.0 | 7.8 | 0.00 | 0.00 | 0.00 | 50 | 1011.2 |
| 20260904003004 | 72 | 298 | 0.0 | 6.1 | 0.00 | 0.00 | 0.00 | 47 | 1011.2 |
| 20260904001502 | 73 | 273 | 0.0 | 2.6 | 0.00 | 0.00 | 0.00 | 44 | 1011.2 |
| 20260904000002 | 73 | 325 | 0.0 | 7.0 | 0.00 | 0.00 | 0.00 | 43 | 1011.3 |
| 20260903234600 | 74 | 315 | 2.6 | 7.8 | 0.00 | 0.00 | 0.00 | 43 | 1011.2 |
| 20260903233059 | 74 | 311 | 0.0 | 11.3 | 0.00 | 0.00 | 0.00 | 44 | 1011.3 |
| 20260903231611 | 75 | 290 | 0.0 | 7.0 | 0.00 | 0.00 | 0.00 | 43 | 1011.5 |
| 20260903230110 | 76 | 232 | 0.0 | 8.7 | 0.00 | 0.00 | 0.00 | 41 | 1011.5 |
| 20260903224555 | 76 | 287 | 3.5 | 13.0 | 0.00 | 0.00 | 0.00 | 40 | 1011.7 |
| 20260903223105 | 77 | 306 | 0.0 | 10.4 | 0.00 | 0.00 | 0.00 | 39 | 1011.9 |
| 20260903221551 | 78 | 221 | 0.0 | 6.1 | 0.00 | 0.00 | 0.00 | 39 | 1012.0 |
| 20260903214547 | 81 | 316 | 0.0 | 8.7 | 0.00 | 0.00 | 0.00 | 32 | 1012.1 |
| 20260903213045 | 82 | 294 | 0.0 | 9.6 | 0.00 | 0.00 | 0.00 | 26 | 1012.3 |
| 20260903211543 | 83 | 304 | 0.0 | 10.4 | 0.00 | 0.00 | 0.00 | 22 | 1012.4 |
| 20260903210039 | 83 | 327 | 0.0 | 11.3 | 0.00 | 0.00 | 0.00 | 21 | 1012.4 |
| 20260903204538 | 83 | 320 | 0.0 | 7.0 | 0.00 | 0.00 | 0.00 | 21 | 1012.7 |
| 20260903203037 | 83 | 327 | 0.0 | 7.0 | 0.00 | 0.00 | 0.00 | 20 | 1012.7 |
| 20260903201534 | 83 | 330 | 0.0 | 10.4 | 0.00 | 0.00 | 0.00 | 19 | 1012.9 |
| 20260903200043 | 83 | 317 | 1.7 | 10.4 | 0.00 | 0.00 | 0.00 | 19 | 1013.0 |
| 20260903194540 | 82 | 360 | 0.0 | 3.5 | 0.00 | 0.00 | 0.00 | 19 | 1013.1 |
| 20260903193027 | 82 | 308 | 0.0 | 11.3 | 0.00 | 0.00 | 0.00 | 18 | 1013.4 |
| 20260903191525 | 82 | 313 | 0.0 | 7.8 | 0.00 | 0.00 | 0.00 | 18 | 1013.3 |
| 20260903190026 | 82 | 283 | 0.0 | 9.6 | 0.00 | 0.00 | 0.00 | 17 | 1013.4 |
| 20260903184524 | 81 | 300 | 0.0 | 9.6 | 0.00 | 0.00 | 0.00 | 15 | 1013.7 |
| 20260903183036 | 81 | 266 | 0.9 | 10.4 | 0.00 | 0.00 | 0.00 | 14 | 1013.8 |
| 20260903181526 | 80 | 349 | 0.0 | 7.0 | 0.00 | 0.00 | 0.00 | 14 | 1014.0 |
| 20260903180019 | 80 | 322 | 0.0 | 10.4 | 0.00 | 0.00 | 0.00 | 14 | 1013.9 |
| 20260903174521 | 79 | 313 | 0.0 | 7.8 | 0.00 | 0.00 | 0.00 | 15 | 1014.0 |
| 20260903173013 | 79 | 287 | 0.0 | 3.5 | 0.00 | 0.00 | 0.00 | 16 | 1014.0 |
| 20260903171517 | 78 | 315 | 0.0 | 4.3 | 0.00 | 0.00 | 0.00 | 17 | 1013.7 |
| 20260903170013 | 76 | 296 | 0.0 | 4.3 | 0.00 | 0.00 | 0.00 | 18 | 1013.6 |
| 20260903164502 | 75 | 347 | 0.0 | 0.0 | 0.00 | 0.00 | 0.00 | 21 | 1013.5 |
| 20260903163057 | 73 | 332 | 0.0 | 0.0 | 0.00 | 0.00 | 0.00 | 25 | 1013.4 |
| 20260903161611 | 70 | 81 | 0.0 | 0.0 | 0.00 | 0.00 | 0.00 | 30 | 1013.4 |
| 20260903160049 | 67 | 87 | 0.0 | 0.0 | 0.00 | 0.00 | 0.00 | 33 | 1013.5 |
| 20260903154544 | 62 | 89 | 0.0 | 0.0 | 0.00 | 0.00 | 0.00 | 38 | 1013.6 |
| 20260903153039 | 57 | 89 | 0.0 | 0.0 | 0.00 | 0.00 | 0.00 | 43 | 1013.5 |
| 20260903151538 | 54 | 103 | 0.0 | 0.0 | 0.00 | 0.00 | 0.00 | 41 | 1013.7 |
| 20260903150031 | 52 | 103 | 0.0 | 0.0 | 0.00 | 0.00 | 0.00 | 40 | 1013.9 |
| 20260903144528 | 51 | 103 | 0.0 | 0.0 | 0.00 | 0.00 | 0.00 | 39 | 1013.7 |
| 20260903143036 | 49 | 103 | 0.0 | 0.0 | 0.00 | 0.00 | 0.00 | 38 | 1013.7 |
| 20260903141525 | 48 | 103 | 0.0 | 0.0 | 0.00 | 0.00 | 0.00 | 35 | 1013.4 |
| 20260903140025 | 47 | 103 | 0.0 | 0.0 | 0.00 | 0.00 | 0.00 | 33 | 1013.1 |
| 20260903134527 | 47 | 103 | 0.0 | 0.0 | 0.00 | 0.00 | 0.00 | 31 | 1012.9 |
| 20260903133024 | 47 | 103 | 0.0 | 0.0 | 0.00 | 0.00 | 0.00 | 30 | 1012.9 |
| 20260903131524 | 47 | 103 | 0.0 | 0.0 | 0.00 | 0.00 | 0.00 | 29 | 1012.8 |
| 20260903130022 | 47 | 103 | 0.0 | 0.0 | 0.00 | 0.00 | 0.00 | 29 | 1012.6 |
| 20260903124544 | 47 | 103 | 0.0 | 0.0 | 0.00 | 0.00 | 0.00 | 29 | 1012.7 |
| 20260903123020 | 48 | 103 | 0.0 | 0.0 | 0.00 | 0.00 | 0.00 | 28 | 1012.6 |
| 20260903121537 | 48 | 103 | 0.0 | 0.0 | 0.00 | 0.00 | 0.00 | 28 | 1012.7 |
| 20260903120018 | 48 | 103 | 0.0 | 0.0 | 0.00 | 0.00 | 0.00 | 28 | 1012.6 |
| 20260903114520 | 48 | 103 | 0.0 | 0.0 | 0.00 | 0.00 | 0.00 | 28 | 1012.6 |
| 20260903113019 | 48 | 103 | 0.0 | 0.0 | 0.00 | 0.00 | 0.00 | 27 | 1012.8 |
| 20260903111513 | 48 | 103 | 0.0 | 0.0 | 0.00 | 0.00 | 0.00 | 26 | 1013.0 |
| 20260903110012 | 47 | 103 | 0.0 | 0.0 | 0.00 | 0.00 | 0.00 | 27 | 1013.0 |
| 20260903104511 | 47 | 103 | 0.0 | 0.0 | 0.00 | 0.00 | 0.00 | 27 | 1013.2 |
| 20260903103010 | 47 | 103 | 0.0 | 0.0 | 0.00 | 0.00 | 0.00 | 28 | 1013.1 |
| 20260903101509 | 47 | 103 | 0.0 | 0.0 | 0.00 | 0.00 | 0.00 | 29 | 1013.1 |
| 20260903100018 | 47 | 103 | 0.0 | 0.0 | 0.00 | 0.00 | 0.00 | 30 | 1013.4 |
| 20260903094502 | 47 | 103 | 0.0 | 0.0 | 0.00 | 0.00 | 0.00 | 31 | 1013.5 |